FW8528 Weather Reports


Display with metric or nautical units.
time (UTC)temp
F
wind
direction
speed
MPH
gust
MPH
rain 1hr
in
rain 24hr
in
rain mn
in
humidity
%
barometer
mb
20260502194818 71 120 2.0 2.0 0.00 0.00 0.00 59 1015.4
20260502194315 71 290 1.0 1.0 0.00 0.00 0.00 63 1015.1
20260502193811 70 162 2.0 2.0 0.00 0.00 0.00 61 1015.4
20260502193308 70 135 2.0 2.0 0.00 0.00 0.00 60 1015.4
20260502192803 69 166 1.0 2.0 0.00 0.00 0.00 61 1015.4
20260502192304 70 27 2.0 2.0 0.00 0.00 0.00 61 1015.4
20260502191758 70 218 5.0 6.0 0.00 0.00 0.00 60 1015.4
20260502191256 69 233 2.0 3.0 0.00 0.00 0.00 61 1015.4
20260502190753 70 233 3.0 3.0 0.00 0.00 0.00 59 1015.8
20260502190250 69 113 1.0 2.0 0.00 0.00 0.00 60 1015.8
20260502185751 68 216 4.0 5.0 0.00 0.00 0.00 63 1015.4
20260502185247 68 203 1.0 2.0 0.00 0.00 0.00 65 1015.8
20260502184744 67 104 1.0 2.0 0.00 0.00 0.00 65 1015.8
20260502184239 67 55 1.0 1.0 0.00 0.00 0.00 67 1015.8
20260502183737 66 247 0.0 1.0 0.00 0.00 0.00 69 1015.8
20260502183232 66 121 3.0 3.0 0.00 0.00 0.00 70 1015.8
20260502182727 65 219 1.0 1.0 0.00 0.00 0.00 70 1015.8
20260502182223 64 331 2.0 3.0 0.00 0.00 0.00 73 1016.2
20260502181720 64 338 2.0 2.0 0.00 0.00 0.00 72 1016.2
20260502181220 63 261 0.0 0.0 0.00 0.00 0.00 74 1015.8
20260502180717 63 175 0.0 1.0 0.00 0.00 0.00 75 1016.2
20260502180214 62 204 2.0 2.0 0.00 0.00 0.00 77 1016.2
20260502170138 58 172 0.0 1.0 0.00 0.00 0.00 83 1016.6
20260502164124 57 210 0.0 1.0 0.00 0.00 0.00 85 1016.6
20260502163621 57 181 1.0 3.0 0.00 0.00 0.00 86 1016.6
20260502163117 57 136 4.0 7.0 0.00 0.00 0.00 85 1016.2
20260502162614 57 192 2.0 2.0 0.00 0.00 0.00 87 1016.6
20260502162111 57 216 0.0 0.0 0.00 0.00 0.00 89 1016.2
20260502161608 56 275 0.0 1.0 0.00 0.00 0.00 88 1016.6
20260502161105 56 243 1.0 2.0 0.00 0.00 0.00 90 1016.2
20260502160603 55 207 2.0 3.0 0.00 0.00 0.00 92 1016.6
20260502152016 50 280 0.0 0.0 0.00 0.00 0.00 99 1016.2
20260502151513 50 279 0.0 0.0 0.00 0.00 0.00 99 1016.6
20260502151010 49 280 0.0 0.0 0.00 0.00 0.00 99 1016.2
20260502150508 49 280 0.0 0.0 0.00 0.00 0.00 99 1016.2
20260502130353 48 163 1.0 1.0 0.00 0.00 0.00 99 1015.8
20260502123335 48 212 0.0 0.0 0.00 0.00 0.00 99 1015.8
20260502122833 48 264 0.0 0.0 0.00 0.00 0.00 99 1015.8
20260502122328 48 270 0.0 0.0 0.00 0.00 0.00 99 1015.8
20260502121827 49 219 0.0 0.0 0.00 0.00 0.00 99 1016.2
20260502121324 50 220 0.0 1.0 0.00 0.00 0.00 99 1015.8
20260502120821 49 288 0.0 0.0 0.00 0.00 0.00 99 1016.2
20260502120317 49 327 1.0 1.0 0.00 0.00 0.00 99 1015.8
20260502115815 48 299 1.0 1.0 0.00 0.00 0.00 99 1015.8
20260502115312 48 288 1.0 1.0 0.00 0.00 0.00 99 1015.8
20260502114808 48 261 0.0 0.0 0.00 0.00 0.00 99 1016.2
20260502114305 48 261 0.0 0.0 0.00 0.00 0.00 99 1016.2
20260502113802 48 261 0.0 0.0 0.00 0.00 0.00 99 1016.2
20260502113259 48 261 0.0 0.0 0.00 0.00 0.00 99 1016.6
20260502112757 48 261 0.0 0.0 0.00 0.00 0.00 99 1016.9
20260502112255 48 261 0.0 0.0 0.00 0.00 0.00 99 1016.6
20260502111752 48 220 0.0 0.0 0.00 0.00 0.00 99 1016.6
20260502111249 48 238 0.0 0.0 0.00 0.00 0.00 99 1016.6
20260502110746 48 229 0.0 0.0 0.00 0.00 0.00 99 1016.9
20260502110244 48 234 0.0 0.0 0.00 0.00 0.00 99 1016.9
20260502105742 48 260 0.0 0.0 0.00 0.00 0.00 99 1016.6
20260502105238 48 218 0.0 0.0 0.00 0.00 0.00 99 1016.6
20260502104736 48 202 1.0 1.0 0.00 0.00 0.00 99 1016.6
20260502104233 48 229 0.0 0.0 0.00 0.00 0.00 99 1016.9
20260502103731 48 219 0.0 1.0 0.00 0.00 0.00 99 1016.6
20260502103228 48 254 0.0 0.0 0.00 0.00 0.00 99 1015.8
20260502102725 48 255 0.0 0.0 0.00 0.00 0.00 99 1016.2
20260502102222 48 249 0.0 0.0 0.00 0.00 0.00 99 1016.2
20260502101720 48 248 0.0 0.0 0.00 0.00 0.00 99 1016.2
20260502101218 48 238 0.0 1.0 0.00 0.00 0.00 99 1016.2
20260502100715 48 263 0.0 0.0 0.00 0.00 0.00 99 1016.2
20260502100214 48 263 0.0 0.0 0.00 0.00 0.00 99 1016.2
20260502091148 48 234 0.0 0.0 0.00 0.00 0.00 99 1016.6
20260502090645 48 237 0.0 0.0 0.00 0.00 0.00 99 1016.6
20260502090142 48 235 0.0 0.0 0.00 0.00 0.00 99 1016.2
20260502080104 49 191 1.0 1.0 0.00 0.00 0.00 99 1016.6
20260502071038 50 247 0.0 0.0 0.00 0.00 0.00 97 1016.2
20260502070535 50 247 0.0 0.0 0.00 0.00 0.00 96 1015.8
20260502070033 50 256 0.0 0.0 0.00 0.00 0.00 96 1016.2
20260502065532 50 223 0.0 0.0 0.00 0.00 0.00 96 1016.2
20260502065029 50 222 0.0 1.0 0.00 0.00 0.00 96 1016.2
20260502064527 51 215 0.0 0.0 0.00 0.00 0.00 95 1016.2
20260502064024 51 208 0.0 0.0 0.00 0.00 0.00 95 1016.2
20260502063522 51 173 1.0 2.0 0.00 0.00 0.00 95 1016.2
20260502063019 51 224 0.0 0.0 0.00 0.00 0.00 94 1016.6
20260502062516 51 197 1.0 1.0 0.00 0.00 0.00 95 1015.8
20260502062015 52 234 0.0 0.0 0.00 0.00 0.00 93 1016.2
20260502061512 52 223 0.0 0.0 0.00 0.00 0.00 93 1016.2
20260502061009 52 213 0.0 1.0 0.00 0.00 0.00 92 1016.2
20260502060503 53 191 1.0 1.0 0.00 0.00 0.00 92 1016.2
20260502060001 53 172 1.0 1.0 0.00 0.00 0.00 91 1016.6
20260502055458 53 208 0.0 1.0 0.00 0.00 0.00 90 1016.2
20260502054958 53 179 1.0 1.0 0.00 0.00 0.00 90 1015.8
20260502054455 54 221 1.0 1.0 0.00 0.00 0.00 90 1015.8
20260502053952 54 249 0.0 0.0 0.00 0.00 0.00 89 1016.2
20260502053449 54 227 1.0 2.0 0.00 0.00 0.00 88 1016.2
20260502052947 55 225 1.0 1.0 0.00 0.00 0.00 89 1015.8
20260502052445 55 211 0.0 0.0 0.00 0.00 0.00 88 1016.2
20260502051943 55 210 1.0 1.0 0.00 0.00 0.00 87 1015.8
20260502051441 56 238 0.0 0.0 0.00 0.00 0.00 85 1016.2
20260502050938 56 205 0.0 1.0 0.00 0.00 0.00 85 1015.8
20260502050434 56 205 0.0 0.0 0.00 0.00 0.00 85 1015.8
20260502045931 57 205 0.0 0.0 0.00 0.00 0.00 84 1015.8
20260502045428 57 205 1.0 1.0 0.00 0.00 0.00 83 1015.8
20260502044925 57 214 0.0 0.0 0.00 0.00 0.00 85 1016.2
20260502044420 57 236 0.0 0.0 0.00 0.00 0.00 81 1015.8
20260502043918 58 236 0.0 0.0 0.00 0.00 0.00 80 1015.8
20260502043416 58 220 0.0 0.0 0.00 0.00 0.00 80 1015.8
20260502042915 59 238 0.0 0.0 0.00 0.00 0.00 79 1015.8
20260502042413 59 216 0.0 0.0 0.00 0.00 0.00 79 1015.8
20260502041910 59 219 0.0 1.0 0.00 0.00 0.00 76 1015.8
20260502041408 59 218 0.0 0.0 0.00 0.00 0.00 75 1015.4
20260502040904 60 220 0.0 0.0 0.00 0.00 0.00 78 1015.8
20260502040401 60 219 0.0 0.0 0.00 0.00 0.00 74 1015.1
20260502035857 61 165 1.0 1.0 0.00 0.00 0.00 73 1015.4
20260502035354 61 220 0.0 0.0 0.00 0.00 0.00 72 1015.4
20260502034851 61 212 0.0 0.0 0.00 0.00 0.00 72 1014.8
20260502034350 61 203 1.0 1.0 0.00 0.00 0.00 73 1015.1
20260502033848 62 236 0.0 0.0 0.00 0.00 0.00 79 1015.1
20260502033345 62 236 0.0 0.0 0.00 0.00 0.00 75 1014.8
20260502032841 63 236 0.0 0.0 0.00 0.00 0.00 78 1015.1
20260502032337 64 236 0.0 0.0 0.00 0.00 0.00 74 1014.8
20260502031835 64 216 0.0 0.0 0.00 0.00 0.00 66 1014.4
20260502031333 65 224 0.0 0.0 0.00 0.00 0.00 65 1014.4
20260502030832 65 224 0.0 0.0 0.00 0.00 0.00 62 1014.4
20260502030329 66 208 0.0 0.0 0.00 0.00 0.00 62 1014.8
20260502025826 66 265 0.0 0.0 0.00 0.00 0.00 65 1014.8
20260502025324 66 217 0.0 0.0 0.00 0.00 0.00 66 1014.1
20260502024822 67 209 1.0 1.0 0.00 0.00 0.00 68 1014.1
20260502024319 67 230 0.0 0.0 0.00 0.00 0.00 64 1014.1
20260502023817 67 222 0.0 0.0 0.00 0.00 0.00 66 1014.4
20260502023315 67 232 2.0 2.0 0.00 0.00 0.00 62 1014.1
20260502022812 67 238 0.0 0.0 0.00 0.00 0.00 63 1014.1
20260502022308 68 209 0.0 1.0 0.00 0.00 0.00 62 1014.1
20260502021805 68 158 5.0 7.0 0.00 0.00 0.00 60 1014.1
20260502021302 68 181 1.0 2.0 0.00 0.00 0.00 59 1014.1
20260502020800 68 225 0.0 0.0 0.00 0.00 0.00 61 1014.1
20260502020257 69 177 1.0 1.0 0.00 0.00 0.00 64 1013.7
20260502015754 69 226 0.0 0.0 0.00 0.00 0.00 62 1014.1
20260502015250 69 219 0.0 0.0 0.00 0.00 0.00 57 1013.7
20260502014748 70 237 0.0 0.0 0.00 0.00 0.00 60 1013.7
20260502014245 70 272 0.0 0.0 0.00 0.00 0.00 54 1014.1
20260502013741 70 194 0.0 1.0 0.00 0.00 0.00 54 1014.1
20260502013237 71 358 2.0 2.0 0.00 0.00 0.00 52 1014.1
20260502012734 71 221 1.0 2.0 0.00 0.00 0.00 52 1014.1
20260502012232 71 331 1.0 1.0 0.00 0.00 0.00 52 1013.7
20260502011729 73 127 3.0 3.0 0.00 0.00 0.00 50 1014.1
20260502011224 73 343 3.0 3.0 0.00 0.00 0.00 51 1014.1
20260502010723 73 86 1.0 1.0 0.00 0.00 0.00 50 1013.7
20260502010218 73 271 1.0 1.0 0.00 0.00 0.00 50 1013.7
20260502005716 73 245 1.0 1.0 0.00 0.00 0.00 49 1014.1
20260502005214 73 208 0.0 1.0 0.00 0.00 0.00 49 1014.1
20260502004709 74 284 1.0 2.0 0.00 0.00 0.00 48 1014.1
20260502004206 75 251 1.0 2.0 0.00 0.00 0.00 49 1014.1
20260502003704 75 271 1.0 1.0 0.00 0.00 0.00 48 1013.7
20260502003201 74 278 1.0 2.0 0.00 0.00 0.00 51 1014.1
20260502002657 74 248 0.0 1.0 0.00 0.00 0.00 47 1013.7
20260502002155 75 201 2.0 2.0 0.00 0.00 0.00 51 1013.7
20260502001652 75 311 1.0 2.0 0.00 0.00 0.00 45 1013.7
20260502001149 76 164 3.0 3.0 0.00 0.00 0.00 44 1013.7
20260502000647 78 227 1.0 1.0 0.00 0.00 0.00 48 1014.1
20260502000145 77 198 1.0 1.0 0.00 0.00 0.00 47 1013.7
20260501235641 76 197 2.0 2.0 0.00 0.00 0.00 47 1013.7
20260501235136 75 264 2.0 2.0 0.00 0.00 0.00 45 1013.7
20260501234632 76 231 1.0 1.0 0.00 0.00 0.00 43 1014.1
20260501234130 75 247 2.0 2.0 0.00 0.00 0.00 44 1014.1
20260501233628 75 86 1.0 1.0 0.00 0.00 0.00 44 1014.1
20260501233125 75 236 0.0 0.0 0.00 0.00 0.00 44 1013.7
20260501232620 77 214 1.0 1.0 0.00 0.00 0.00 47 1014.1
20260501232118 78 217 2.0 2.0 0.00 0.00 0.00 40 1014.1
20260501231616 78 213 0.0 0.0 0.00 0.00 0.00 45 1014.1
20260501231114 78 208 2.0 2.0 0.00 0.00 0.00 41 1014.1
20260501230612 78 280 1.0 1.0 0.00 0.00 0.00 41 1014.1
20260501230110 77 186 0.0 0.0 0.00 0.00 0.00 46 1014.1
20260501225607 77 177 3.0 3.0 0.00 0.00 0.00 43 1014.4
20260501225103 78 261 0.0 1.0 0.00 0.00 0.00 41 1014.4
20260501224601 77 147 1.0 2.0 0.00 0.00 0.00 45 1014.4
20260501224057 78 243 1.0 2.0 0.00 0.00 0.00 42 1014.4
20260501223554 78 265 3.0 5.0 0.00 0.00 0.00 43 1014.4
20260501223050 77 253 1.0 1.0 0.00 0.00 0.00 42 1014.1
20260501222547 77 42 2.0 2.0 0.00 0.00 0.00 44 1014.4
20260501222044 77 303 1.0 1.0 0.00 0.00 0.00 41 1014.8
20260501221540 77 90 2.0 2.0 0.00 0.00 0.00 44 1014.8
20260501221038 78 190 1.0 2.0 0.00 0.00 0.00 44 1014.8
20260501220536 76 239 0.0 0.0 0.00 0.00 0.00 40 1014.4
20260501220032 76 267 0.0 1.0 0.00 0.00 0.00 42 1014.8
20260501215528 76 200 1.0 2.0 0.00 0.00 0.00 46 1014.8
20260501215024 76 141 2.0 3.0 0.00 0.00 0.00 46 1015.1
20260501214519 76 179 2.0 3.0 0.00 0.00 0.00 43 1015.1
20260501214015 75 185 2.0 2.0 0.00 0.00 0.00 46 1015.1
20260501213512 77 184 2.0 3.0 0.00 0.00 0.00 43 1015.1
20260501213009 75 185 1.0 1.0 0.00 0.00 0.00 51 1014.8
20260501212504 75 183 1.0 1.0 0.00 0.00 0.00 46 1015.1
20260501212002 74 213 1.0 2.0 0.00 0.00 0.00 45 1015.1
20260501211459 75 161 1.0 2.0 0.00 0.00 0.00 47 1015.1
20260501210956 73 187 2.0 2.0 0.00 0.00 0.00 50 1015.4
20260501210452 73 266 0.0 0.0 0.00 0.00 0.00 51 1015.4
20260501205949 73 270 1.0 1.0 0.00 0.00 0.00 46 1015.1
20260501205446 73 310 1.0 1.0 0.00 0.00 0.00 47 1015.4
20260501204943 75 307 5.0 6.0 0.00 0.00 0.00 46 1015.1
20260501204439 76 159 4.0 5.0 0.00 0.00 0.00 46 1015.1
20260501203936 74 257 1.0 1.0 0.00 0.00 0.00 49 1015.4
20260501203432 76 192 3.0 3.0 0.00 0.00 0.00 45 1015.4
20260501202930 75 216 1.0 2.0 0.00 0.00 0.00 51 1015.4
20260501202427 73 190 1.0 1.0 0.00 0.00 0.00 50 1015.8
20260501201923 73 186 1.0 2.0 0.00 0.00 0.00 50 1015.8
20260501201420 72 258 0.0 1.0 0.00 0.00 0.00 49 1015.4
20260501200917 71 247 0.0 0.0 0.00 0.00 0.00 51 1015.4
20260501200414 70 189 2.0 2.0 0.00 0.00 0.00 51 1015.8
20260501195912 71 252 1.0 1.0 0.00 0.00 0.00 51 1015.8
20260501195408 71 127 3.0 3.0 0.00 0.00 0.00 50 1015.8